Location: Eastvale
(40.7667°N, 80.3148°W)
Time: 00:17:14
(UTC+00:00)

Daily predictions for brighter satellites

Satellite Brightness Start Highest point End
(mag) Time Altitude Azimuth Time Altitude Azimuth Time Altitude Azimuth
Cosmos 1975 Rocket 3.4 00:00:44 10° N 00:04:53 43° ENE 00:08:59 10° SSE
Cosmos 2084 Rocket 3.8 00:01:10 10° NNW 00:05:32 53° NE 00:09:58 10° SE
Cosmos 1743 4.5 00:02:04 10° SSW 00:05:39 37° WNW 00:09:15 10° N
USA 234 4.0 00:01:23 10° ENE 00:06:56 29° SE 00:12:29 10° S
COSMO-SKYMED 1 4.3 00:03:59 10° N 00:08:00 38° WNW 00:12:00 10° SW
Cosmos 1707 3.9 00:05:10 10° NNE 00:08:16 23° ENE 00:11:19 10° SE
Abrixas rocket 3.9 00:11:06 10° WNW 00:13:26 22° NNW 00:15:47 10° NE
ISS -3.7 00:13:49 10° SW 00:17:08 60° SE 00:20:14 12° ENE
Sich 1 Rocket 3.7 00:13:01 10° SSE 00:17:20 51° E 00:21:44 10° NNE
H-2A R/B 1.9 00:16:10 10° SSE 00:21:03 67° ENE 00:26:03 10° N
ARGOS 3.2 00:19:42 10° SSE 00:24:54 55° ENE 00:30:09 10° N
Iridium 4 Rocket 4.0 00:20:20 10° SSW 00:25:05 62° W 00:30:21 10° N
Cosmos 1437 2.6 00:25:01 10° NNW 00:28:01 77° W 00:30:59 10° S
SJ 16-02 4.1 00:27:40 10° WSW 00:31:06 22° WNW 00:34:33 10° N
CZ-2C R/B 3.2 00:26:06 10° NNE 00:31:14 38° E 00:36:24 10° SSE
SL-08 RB Rocket 4.1 00:27:10 11° SE 00:31:17 42° ENE 00:35:36 10° N
Milstar 3 Cent rocket 4.0 00:31:52 10° SSW 00:35:15 15° S 00:37:15 12° SE
Lacrosse 5 rocket 4.1 00:33:51 10° NW 00:36:09 14° NNW 00:38:31 10° NNE
Okean 2 Rocket 3.2 00:32:45 10° S 00:37:07 53° E 00:41:30 10° NNE
NOSS 2-2 (E) 3.6 00:33:45 10° SW 00:37:11 60° NW 00:40:56 10° NNE
Cosmos 2263 Rocket 3.3 00:36:16 10° SW 00:41:35 46° WNW 00:46:57 10° NNE
USA 102 4.4 00:37:50 19° SSE 00:41:47 85° ENE 00:46:45 10° NNW
ATLAS 2AS CENTAUR R/B 4.1 00:36:27 10° SSE 00:46:15 12° ENE 00:47:09 10° ENE
HJ-1C 4.0 00:39:06 10° S 00:42:19 55° W 00:45:34 10° NNW
DELTA 2 R/B (1) 3.9 00:38:11 10° W 00:43:37 56° SSW 00:46:52 24° SE
NOSS 2-2 (D) 3.4 00:42:14 10° SW 00:45:41 64° NW 00:49:24 10° NNE
CZ-2C R/B 3.8 00:40:45 10° S 00:45:47 55° W 00:51:10 10° NNW
Cosmos 1844 Rocket 2.9 00:43:30 10° S 00:48:41 42° ESE 00:53:54 10° NE
Cosmos 1300 Rocket 3.4 00:44:49 10° S 00:49:10 71° E 00:53:34 10° NNE
Ariane Rocket 3.0 00:50:37 20° SSE 00:54:06 61° ENE 00:59:06 10° N
Cosmos 1513 Rocket 4.4 00:48:06 10° S 00:54:24 87° E 01:00:39 10° N
USA 186 1.5 00:54:52 57° SE 00:55:20 72° ENE 00:58:31 10° N
CENTAUR R/B 3.9 00:48:42 10° NNW 00:55:57 35° NE 01:00:05 24° E
Cosmos 1943 4.0 00:54:39 10° NNW 01:00:07 52° WSW 01:05:34 10° S
IRS-1A Rocket 4.3 00:55:24 16° SSE 01:00:13 71° ENE 01:06:04 10° N
Exosat Rocket 3.9 00:55:23 10° S 01:01:02 43° ESE 01:05:48 10° NE
Cosmos 1464 Rocket 4.0 00:56:38 10° S 01:02:45 84° W 01:08:56 10° N
Cosmos 2298 Rocket 3.9 00:58:37 10° SSW 01:03:55 76° ESE 01:09:16 10° NNE
Meteor 1-15 Rocket 4.3 00:58:35 10° SSE 01:03:57 50° E 01:09:26 10° NNE
Meteor 1-12 Rocket 4.4 00:58:53 10° SSW 01:04:49 81° W 01:10:42 10° N
USA 238 DEB 4.2 00:57:54 10° NNW 01:04:52 48° NE 01:07:59 32° E
USA 238 4.2 00:58:01 10° NNW 01:04:58 47° NE 01:08:04 32° E
SPOT 3 Rocket 4.1 01:05:38 35° E 01:06:12 36° ENE 01:10:52 10° N
FREGAT/IRIS 4.4 01:09:18 20° N 01:09:18 20° N 01:10:18 10° N
Cosmos 1536 Rocket 3.5 01:04:34 10° N 01:09:00 64° E 01:09:58 49° SE
MetOp-A 4.1 01:07:54 31° SSE 01:10:28 68° ENE 01:15:48 10° N
OBJECT-B 2.7 01:14:10 22° NNE 01:14:10 22° NNE 01:15:32 10° N
Cosmos 1092 Rocket 4.3 01:07:12 10° N 01:13:03 44° ENE 01:14:15 39° ESE
Cosmos 2151 Rocket 3.7 01:13:57 10° SSW 01:18:22 76° W 01:22:52 10° N
Cosmos 1867 3.6 01:13:45 10° NW 01:19:13 75° WSW 01:21:23 37° SSE
Cosmos 1025 Rocket 3.3 01:17:32 10° NNW 01:21:54 67° W 01:23:50 32° SSW
CZ-2C R/B 2.6 01:20:12 10° WSW 01:22:04 23° SW 01:22:04 23° SW
Cosmos 1674 3.7 01:26:30 10° N 01:29:02 39° N 01:29:02 39° N
DMSP B5D2-2 4.3 01:26:24 10° N 01:31:41 73° WNW 01:36:56 10° SSW
NOSS 3-2 (A) 4.0 01:25:35 10° NNW 01:33:15 74° NE 01:36:11 45° SE
Cosmos 2150 Rocket 4.4 01:28:41 10° SSW 01:33:59 64° WNW 01:39:23 10° NNE
Meteor 2-5 Rocket 3.8 01:32:44 10° N 01:38:03 56° ENE 01:38:03 56° ENE
BREEZE-M DEB (TANK) 3.5 01:36:16 10° WNW 01:40:03 82° SSW 01:42:24 47° SE
Cosmos 1125 Rocket 3.6 01:38:47 10° SSW 01:44:05 78° WNW 01:49:26 10° NNE
SJ-6B 4.0 01:44:19 37° W 01:44:23 37° W 01:47:53 10° NNW
Resurs 01 Rocket 2.7 01:49:35 37° N 01:49:35 37° N 01:52:23 10° N
USA 234 3.3 01:43:45 10° NE 01:50:17 76° NW 01:56:49 10° WSW
Cosmos 2082 Rocket 4.3 01:50:26 10° NNE 01:52:04 13° NE 01:52:04 13° NE
ISS -1.1 01:51:22 10° WNW 01:53:13 21° NW 01:53:13 21° NW
COSMOS 2406 4.5 01:56:57 10° N 02:00:31 28° NNE 02:00:31 28° NNE
Meteor 1-24 Rocket 4.1 01:58:46 10° N 02:02:58 52° NNE 02:02:58 52° NNE
NOSS 3-2 (C) 3.9 01:59:52 10° NNW 02:07:34 77° NE 02:08:32 69° ESE
ATLAS 2AS CENTAUR R/B 3.1 02:23:55 10° SSW 02:33:18 65° NNE 02:39:50 10° NE
Cosmos 1844 Rocket 4.5 02:27:57 10° WSW 02:32:41 28° NW 02:37:28 10° N
CENTAUR R/B 3.2 02:39:06 10° NW 02:47:17 72° WSW 02:47:17 72° WSW
ATLAS 3B R/B 3.6 02:46:56 10° NNW 02:51:46 41° N 02:51:46 41° N
Cosmos 1833 Rocket 4.4 02:52:01 10° NNW 02:54:32 27° N 02:54:32 27° N
Resurs 1-4 Rocket 4.4 07:17:57 10° N 07:19:11 17° N 07:19:11 17° N
Cosmos 1697 Rocket 4.2 07:37:49 32° ENE 07:37:49 32° ENE 07:41:07 10° NE
Cosmos 1980 Rocket 4.0 07:40:43 26° E 07:40:43 26° E 07:44:48 10° NE
USA 267 3.4 07:58:18 10° NE 08:04:18 65° NNW 08:04:18 65° NNW
Lacrosse 5 3.1 08:09:35 40° NE 08:09:35 40° NE 08:12:48 10° NE
Cosmos 1821 Rocket 4.1 08:03:52 10° N 08:10:10 70° E 08:10:12 70° E
ADEOS II 3.5 08:19:28 10° N 08:22:10 28° NNW 08:22:10 28° NNW
Nadezhda 3 Rocket 3.9 08:32:55 69° NW 08:32:55 69° NW 08:38:38 10° N
Cosmos 2278 3.6 08:34:00 80° SE 08:34:07 81° ESE 08:39:51 10° NNE
Cosmos 972 Rocket 4.5 08:35:32 48° N 08:35:32 48° N 08:39:08 10° NNE
X-37B 3.5 08:38:14 18° NE 08:38:14 18° NE 08:39:15 10° ENE
IDEFIX/ARIANE 42P 2.5 08:31:48 10° NNE 08:36:52 82° NNE 08:36:52 82° NNE
USA 234 3.5 08:31:45 10° ESE 08:38:12 67° NE 08:44:41 10° NW
MSX 4.0 08:34:13 10° NNE 08:39:59 67° ESE 08:41:47 44° SSE
Cosmos 2369 3.9 08:42:33 57° NW 08:42:33 57° NW 08:47:49 10° NNE
ARIANE 5 R/B 3.0 08:39:12 10° N 08:43:10 48° NNW 08:43:10 48° NNW
CZ-3B R/B 3.8 08:44:41 21° N 08:44:49 21° N 08:49:35 10° NE
Cosmos 389 Rocket 4.4 08:47:50 26° NNE 08:47:50 26° NNE 08:49:33 10° NNE
USA 305 4.0 08:47:19 37° N 08:47:19 37° N 08:50:27 10° NE
USA 306 4.0 08:51:15 37° N 08:51:15 37° N 08:54:32 10° NE
CZ-2D R/B 4.5 08:52:35 10° N 08:55:21 37° NNW 08:55:21 37° NNW
ERS-2 4.2 08:53:38 10° SE 08:56:47 28° ENE 08:59:56 10° N
SJ 16-02 3.1 08:55:38 10° N 08:59:36 32° ENE 09:03:33 10° SE
PSLV R/B 4.4 08:58:53 10° NNE 09:02:57 47° E 09:05:14 23° SSE
H-2A R/B 2.4 08:58:48 10° SSE 09:03:05 67° ENE 09:07:29 10° N
Cosmos 192 4.2 09:11:15 57° SW 09:12:05 69° WNW 09:17:00 10° NNE
Helios 1B 4.4 09:12:02 48° S 09:13:08 71° WSW 09:17:28 10° NNW
Meteor 1-26 Rocket 4.5 09:13:42 42° W 09:13:52 42° WNW 09:18:59 10° N
Cosmos 1812 3.0 09:12:51 38° SSE 09:14:08 67° E 09:17:58 10° NNE
ASTEX 1 3.7 09:09:32 10° N 09:14:17 45° WNW 09:14:18 45° WNW
BREEZE-M DEB (TANK) 3.0 09:17:25 46° NNW 09:17:32 47° NNW 09:22:43 10° ENE
USA 307 4.1 09:17:10 28° NW 09:17:35 29° NNW 09:21:19 10° NE
CZ-2C R/B 2.8 09:12:42 10° NNE 09:17:49 69° ESE 09:22:59 10° S
BREEZE-M DEB (TANK) 3.5 09:13:55 30° SW 09:18:09 70° SSE 09:21:45 10° ENE
Cosmos 1727 Rocket 4.5 09:12:35 10° S 09:18:49 63° E 09:25:05 10° NNE
COSMOS 2441 4.4 09:14:25 10° N 09:19:16 60° WNW 09:20:38 43° SW
Cosmos 1697 Rocket 3.8 09:19:34 26° WNW 09:19:56 26° NW 09:24:39 10° N
SL-8 R/B 4.4 09:17:58 23° NW 09:20:40 49° NNE 09:25:18 10° E
USA 308 4.1 09:20:08 27° NW 09:20:43 28° NNW 09:24:25 10° NNE
ERBS 2.3 09:21:44 68° SSE 09:21:54 69° SE 09:25:14 10° NE
SL-4 R/B 3.7 09:19:51 20° S 09:22:10 32° SE 09:26:24 10° ENE
Cosmos 1500 3.1 09:18:27 10° N 09:22:19 84° E 09:26:07 10° S
PAYLOAD A 3.7 09:18:50 10° NNE 09:23:33 88° E 09:26:52 20° SSW
Cosmos 1980 Rocket 2.6 09:22:31 37° W 09:23:54 44° WNW 09:29:19 10° NNE
CZ-4B R/B 3.4 09:23:51 10° SE 09:26:34 28° ENE 09:29:21 10° N
Cosmos 1339 Rocket 4.4 09:22:54 18° SSW 09:27:40 66° W 09:33:53 10° N
Cosmos 1666 4.1 09:24:30 10° N 09:28:09 40° ENE 09:31:44 10° SSE
BREEZE M DEB (TANK) 3.8 09:14:21 10° WNW 09:28:55 81° NNE 09:33:02 10° ESE
Landsat 5 3.6 09:24:37 10° S 09:29:05 62° W 09:33:34 10° NNW
Cosmos 468 Rocket 4.3 09:24:08 11° S 09:29:10 67° ESE 09:34:26 10° NNE
Cosmos 2322 Rocket 3.1 09:24:02 10° S 09:29:26 48° ESE 09:34:54 10° NE
Cosmos 1782 4.4 09:32:44 20° NW 09:32:44 20° NW 09:34:46 10° NNW
Meteor 1-10 Rocket 4.2 09:25:50 10° S 09:31:34 88° W 09:37:28 10° N
USA 276 4.4 09:31:03 15° NNW 09:31:52 17° N 09:34:03 10° NE
Cosmos 2263 Rocket 2.3 09:29:25 10° NNW 09:35:06 79° ENE 09:40:47 10° SSE
SL-16 R/B 2.4 09:31:36 10° SSW 09:37:14 70° ESE 09:42:53 10° NNE
CZ-2C R/B 3.9 09:37:15 10° NNW 09:40:05 26° WNW 09:40:05 26° WNW
Cosmos 546 4.5 09:39:33 30° WNW 09:41:17 74° SW 09:45:06 10° SE
Cosmos 2227 4.1 09:41:24 10° NNW 09:47:04 78° WSW 09:52:40 10° SSE
NOSS 3-3 (A) 4.0 09:45:01 24° WSW 09:48:29 56° NW 09:54:50 10° NNE
NOSS 3-3 (C) 4.0 09:45:10 24° WSW 09:48:37 56° NW 09:54:54 10° NNE
deb Chang Zheng 4 3.8 09:44:52 10° NNE 09:49:10 71° ESE 09:53:24 10° S
Cosmos 1238 Rocket 4.5 09:43:24 10° NNW 09:49:21 37° W 09:54:50 10° SSW
Lacrosse 5 3.5 09:48:47 16° WNW 09:51:19 22° NNW 09:55:14 10° NNE
SAR-Lupe-4 4.2 09:49:11 10° SSE 09:52:41 57° ENE 09:56:14 10° N
IRIDIUM 104 4.4 09:50:25 10° NNW 09:55:30 54° W 10:00:34 10° SSW
Cosmos 1707 Rocket 3.4 09:52:07 10° S 09:56:25 77° W 10:00:46 10° N
CZ-4C R/B 4.4 09:57:19 21° WNW 09:57:19 21° WNW 09:59:24 10° NW
Cosmos 921 Rocket 3.7 09:55:09 24° WSW 09:56:49 32° WNW 10:00:36 10° N
Meteor 1-5 Rocket 4.2 09:52:40 10° NNW 09:57:48 51° W 10:03:01 10° S
Cosmos 1898 Rocket 3.6 09:52:41 10° NNW 09:57:57 82° ENE 10:03:14 10° SSE
Cosmos 44 4.3 09:58:36 19° W 10:00:28 25° NW 10:04:20 10° N
Cosmos 2228 Rocket 4.2 10:01:21 20° WSW 10:02:46 23° WNW 10:06:18 10° NNW
SAR-Lupe-1 4.1 10:01:25 10° SSE 10:04:58 80° ENE 10:08:33 10° N
ATLAS 2AS CENTAUR R/B 4.0 09:58:46 10° NNW 10:05:53 44° NE 10:12:26 10° ESE
USA 32 4.0 10:03:55 10° N 10:09:07 64° W 10:14:17 10° S
Cosmos 1689 Rocket 3.4 10:07:43 10° SSE 10:10:31 43° ENE 10:13:22 10° N
Meteor 1-4 Rocket 3.4 10:09:31 15° SW 10:11:41 28° WNW 10:14:45 10° NNW
ADEOS 3.5 10:07:11 10° N 10:12:23 69° WNW 10:17:33 10° SSW
X-37B 1.5 10:10:31 12° WNW 10:13:13 44° N 10:16:18 10° E
Cosmos 2173 Rocket 4.1 10:08:07 10° N 10:14:28 90° E 10:20:51 10° S
IDEFIX/ARIANE 42P 4.4 10:13:49 10° NW 10:15:54 12° WNW 10:17:40 11° W
Cosmos 1536 2.8 10:11:52 10° NNW 10:15:55 70° W 10:19:57 10° S
Cosmos 1733 Rocket 3.0 10:13:22 10° N 10:17:45 88° E 10:22:04 10° S
Cosmos 1484 Rocket 2.8 10:15:08 10° N 10:19:05 66° WNW 10:23:03 10° SSW
ADEOS Rocket 3.4 10:13:36 10° S 10:20:26 53° W 10:26:37 10° NNW
USA 234 3.9 10:15:38 10° S 10:21:27 34° SW 10:27:18 10° WNW
ALOS 2.2 10:18:08 10° N 10:22:47 70° WNW 10:27:25 10° SSW
Meteor 1-11 Rocket 4.0 10:19:15 10° NNW 10:24:48 48° W 10:30:11 10° SSW
Cosmos 2061 Rocket 4.4 10:18:42 10° N 10:25:10 73° E 10:31:34 10° SSE
Cosmos 1937 Rocket 3.4 10:21:27 10° NNW 10:26:36 77° WSW 10:31:43 10° SSE
Meteor 1-31 Rocket 2.8 10:26:10 10° N 10:29:56 58° WNW 10:33:42 10° SSW
Cosmos 1862 Rocket 3.5 10:25:54 10° SSW 10:30:16 69° W 10:34:39 10° N
Cosmos 1814 Rocket 4.1 10:25:09 10° SSW 10:30:19 84° ESE 10:35:36 10° NNE
ERS-2 3.6 10:27:47 10° SW 10:30:20 18° W 10:32:54 10° NW
Cosmos 1437 Rocket 3.1 10:28:05 10° S 10:31:49 69° E 10:35:37 10° NNE
FALCON 9 DEB 3.2 10:31:30 10° WSW 10:34:53 62° NW 10:38:18 10° NE
Cosmos 841 Rocket 3.5 10:30:20 10° SSW 10:35:31 69° WNW 10:40:47 10° NNE
Meteor 1-27 Rocket 4.3 10:30:18 10° SW 10:35:53 42° WNW 10:41:30 10° N
SJ 16-02 2.5 10:34:37 10° NW 10:37:58 21° W 10:41:18 10° SSW
Meteor PRIRODA 3.7 10:35:45 10° NNE 10:39:26 84° ESE 10:43:04 10° SSW
H-2A R/B 4.0 10:38:28 10° WSW 10:39:31 11° W 10:40:34 10° WNW
